Air Quality Table

TIMESTAMP NO2 SO2 O3 PM10 PM2.5 TEMP HUM AIRPRES WS WD NO
2021-11-30 00:00 1.1 µg/m3 2.71 µg/m3 79.73 µg/m3 22.73 µg/m3 21.39 µg/m3 11.58 °C 70.92 % 1,007.55 mbar 6.23 m/s 291.52 Deg 0.16 µg/m3
2021-11-29 23:00 1.93 µg/m3 2.77 µg/m3 79.38 µg/m3 23.87 µg/m3 19.91 µg/m3 10.83 °C 77.94 % 1,007.34 mbar 6.43 m/s 304.02 Deg 0.31 µg/m3
2021-11-29 22:00 2.49 µg/m3 2.56 µg/m3 78.74 µg/m3 36.99 µg/m3 18.87 µg/m3 11.43 °C 76.72 % 1,006.39 mbar 6.43 m/s 298.42 Deg 0.37 µg/m3
2021-11-29 21:00 4.05 µg/m3 2.94 µg/m3 76.87 µg/m3 20.09 µg/m3 9.59 µg/m3 12.01 °C 76.04 % 1,005.31 mbar 5.98 m/s 312.52 Deg 0.63 µg/m3
2021-11-29 20:00 4.03 µg/m3 2.68 µg/m3 77.64 µg/m3 19.45 µg/m3 8.86 µg/m3 14.08 °C 54.68 % 1,004.04 mbar 7.99 m/s 294.1 Deg 0.72 µg/m3
2021-11-29 19:00 5.01 µg/m3 2.81 µg/m3 75.93 µg/m3 19.68 µg/m3 14.18 µg/m3 14.5 °C 53.5 % 1,002.99 mbar 8.25 m/s 291.88 Deg 0.83 µg/m3
2021-11-29 18:00 6.37 µg/m3 2.77 µg/m3 71.17 µg/m3 27.29 µg/m3 7.28 µg/m3 14.46 °C 61.62 % 1,002.04 mbar 7.83 m/s 287.87 Deg 1.19 µg/m3
2021-11-29 17:00 8.76 µg/m3 2.88 µg/m3 67.58 µg/m3 28.87 µg/m3 4.47 µg/m3 12.65 °C 78.62 % 1,001.91 mbar 7.03 m/s 280.85 Deg 1.38 µg/m3
2021-11-29 16:00 7.84 µg/m3 2.8 µg/m3 68.55 µg/m3 21.09 µg/m3 5.33 µg/m3 14.53 °C 62.9 % 1,000.79 mbar 8.13 m/s 280.62 Deg 1.86 µg/m3
2021-11-29 15:00 6.83 µg/m3 2.82 µg/m3 69.93 µg/m3 18.09 µg/m3 5.45 µg/m3 15.38 °C 56.32 % 1,000.30 mbar 7.91 m/s 260.97 Deg 1.79 µg/m3
2021-11-29 14:00 4.46 µg/m3 2.82 µg/m3 70.92 µg/m3 19.32 µg/m3 6.55 µg/m3 15.31 °C 58.04 % 1,000.34 mbar 7.86 m/s 261.18 Deg 1.27 µg/m3
2021-11-29 13:00 5.43 µg/m3 2.96 µg/m3 70.11 µg/m3 20.61 µg/m3 5.67 µg/m3 15.44 °C 55.66 % 1,001.11 mbar 7.41 m/s 264.47 Deg 1.73 µg/m3
2021-11-29 12:00 5.84 µg/m3 2.59 µg/m3 68.66 µg/m3 21.78 µg/m3 5.81 µg/m3 15.62 °C 55.23 % 1,001.65 mbar 7.12 m/s 264.28 Deg 1.74 µg/m3
2021-11-29 11:00 6.47 µg/m3 2.87 µg/m3 67.44 µg/m3 17.17 µg/m3 4.97 µg/m3 15.46 °C 53.19 % 1,001.94 mbar 7.19 m/s 267.15 Deg 1.81 µg/m3
2021-11-29 10:00 8.08 µg/m3 2.68 µg/m3 65.6 µg/m3 19.43 µg/m3 6.48 µg/m3 14.86 °C 52.55 % 1,002.20 mbar 6.26 m/s 270.13 Deg 2.29 µg/m3
2021-11-29 09:00 9.56 µg/m3 2.7 µg/m3 64.59 µg/m3 15.72 µg/m3 9.34 µg/m3 14.52 °C 53.98 % 1,002.13 mbar 5.65 m/s 271.93 Deg 2.18 µg/m3
2021-11-29 08:00 12.38 µg/m3 2.91 µg/m3 62.39 µg/m3 8.25 µg/m3 7.16 µg/m3 14.15 °C 54.91 % 1,001.67 mbar 6.01 m/s 272.07 Deg 2.56 µg/m3
2021-11-29 07:00 9.03 µg/m3 2.48 µg/m3 64.4 µg/m3 6.81 µg/m3 5.45 µg/m3 14.06 °C 52.23 % 1,001.01 mbar 5.86 m/s 283 Deg 1.49 µg/m3
2021-11-29 06:00 3.82 µg/m3 2.54 µg/m3 67.38 µg/m3 8.59 µg/m3 6.03 µg/m3 14.23 °C 55.27 % 1,000.50 mbar 5.81 m/s 276.82 Deg 0.56 µg/m3
2021-11-29 05:00 1.48 µg/m3 2.5 µg/m3 69.96 µg/m3 8.95 µg/m3 5.33 µg/m3 13.91 °C 60.95 % 1,000.31 mbar 5.06 m/s 285.27 Deg 0.18 µg/m3
2021-11-29 04:00 1.2 µg/m3 2.53 µg/m3 70.05 µg/m3 7.58 µg/m3 7.54 µg/m3 13.78 °C 65.2 % 999.87 mbar 5.5 m/s 295.4 Deg 0.18 µg/m3
2021-11-29 03:00 0.98 µg/m3 2.86 µg/m3 72.42 µg/m3 8.28 µg/m3 9.81 µg/m3 14.18 °C 65.94 % 999.67 mbar 5.3 m/s 292.32 Deg 0.08 µg/m3
2021-11-29 02:00 1.35 µg/m3 2.33 µg/m3 71.85 µg/m3 11.27 µg/m3 8.37 µg/m3 13.44 °C 77.6 % 999.58 mbar 3.81 m/s 298.77 Deg 0.11 µg/m3
2021-11-29 01:00 1.91 µg/m3 2.45 µg/m3 70.14 µg/m3 14.05 µg/m3 5.35 µg/m3 13.7 °C 82.92 % 999.74 mbar 3.7 m/s 303.18 Deg 0.17 µg/m3
2021-11-29 00:00 3.65 µg/m3 2.27 µg/m3 70.42 µg/m3 18.73 µg/m3 6.04 µg/m3 14.06 °C 79.39 % 999.66 mbar 3.18 m/s 299.65 Deg 0.52 µg/m3
2021-11-28 23:00 4.68 µg/m3 2.71 µg/m3 68.9 µg/m3 16.97 µg/m3 5.04 µg/m3 14.5 °C 75.3 % 999.57 mbar 2.72 m/s 291.8 Deg 0.27 µg/m3
2021-11-28 22:00 5.96 µg/m3 2.29 µg/m3 71.43 µg/m3 10.79 µg/m3 5.4 µg/m3 14.92 °C 73.42 % 999.53 mbar 3.34 m/s 298.95 Deg 0.59 µg/m3
2021-11-28 21:00 6.72 µg/m3 2.46 µg/m3 73.53 µg/m3 7.77 µg/m3 5.89 µg/m3 15.33 °C 71.99 % 999.01 mbar 2.84 m/s 281.72 Deg 0.49 µg/m3
2021-11-28 20:00 8.38 µg/m3 2.45 µg/m3 73.36 µg/m3 8.15 µg/m3 5.81 µg/m3 15.41 °C 72.24 % 998.71 mbar 3.17 m/s 294.92 Deg 0.96 µg/m3
2021-11-28 19:00 8.53 µg/m3 2.24 µg/m3 72.86 µg/m3 8.71 µg/m3 5.92 µg/m3 15.05 °C 83.33 % 998.26 mbar 3.75 m/s 294.7 Deg 1.18 µg/m3
2021-11-28 18:00 6.89 µg/m3 2.34 µg/m3 72.56 µg/m3 7.58 µg/m3 5.9 µg/m3 14.99 °C 92.06 % 997.53 mbar 4.42 m/s 288.88 Deg 0.72 µg/m3
2021-11-28 17:00 5.36 µg/m3 2.33 µg/m3 72 µg/m3 10.49 µg/m3 4.64 µg/m3 15.52 °C 93.49 % 997.10 mbar 3.86 m/s 275.25 Deg 0.57 µg/m3
2021-11-28 16:00 6.1 µg/m3 2.36 µg/m3 71.27 µg/m3 11.44 µg/m3 5.02 µg/m3 16.88 °C 81.81 % 996.73 mbar 3.69 m/s 256.22 Deg 0.55 µg/m3
2021-11-28 15:00 6.39 µg/m3 2.21 µg/m3 70.85 µg/m3 11 µg/m3 5.9 µg/m3 16.61 °C 82.51 % 996.79 mbar 3.45 m/s 261.13 Deg 0.47 µg/m3
2021-11-28 14:00 3.56 µg/m3 2.34 µg/m3 73.98 µg/m3 11.82 µg/m3 6.33 µg/m3 16.34 °C 85.38 % 997.27 mbar 3.62 m/s 238.58 Deg 0.45 µg/m3
2021-11-28 13:00 1.5 µg/m3 2.19 µg/m3 77.12 µg/m3 18.16 µg/m3 5.84 µg/m3 15.87 °C 88.18 % 997.92 mbar 5.11 m/s 211.33 Deg 0.18 µg/m3
2021-11-28 12:00 3.37 µg/m3 2.33 µg/m3 76.98 µg/m3 17.79 µg/m3 8.68 µg/m3 14.96 °C 98.5 % 1,000.11 mbar 4.62 m/s 206.02 Deg 0.2 µg/m3
2021-11-28 11:00 4.5 µg/m3 2.31 µg/m3 76.78 µg/m3 17.52 µg/m3 14.09 µg/m3 14.11 °C 99.6 % 1,001.00 mbar 4.19 m/s 208.02 Deg 0.28 µg/m3
2021-11-28 10:00 5.09 µg/m3 2.41 µg/m3 77.4 µg/m3 22.3 µg/m3 24.54 µg/m3 13.36 °C 98.53 % 1,001.33 mbar 3.7 m/s 231.83 Deg 0.68 µg/m3
2021-11-28 09:00 5.12 µg/m3 2.49 µg/m3 78.19 µg/m3 20.18 µg/m3 21.42 µg/m3 13.49 °C 94.28 % 1,001.47 mbar 3.45 m/s 242.95 Deg 0.5 µg/m3
2021-11-28 08:00 5.84 µg/m3 2.46 µg/m3 79.31 µg/m3 24.5 µg/m3 15.29 µg/m3 13.77 °C 87.74 % 1,000.90 mbar 3.66 m/s 255.52 Deg 0.36 µg/m3
2021-11-28 07:00 3.18 µg/m3 2.68 µg/m3 81.51 µg/m3 19.95 µg/m3 11.43 µg/m3 13.85 °C 86.16 % 1,001.06 mbar 4.47 m/s 262.8 Deg 0.25 µg/m3
2021-11-28 06:00 2.22 µg/m3 2.54 µg/m3 83.4 µg/m3 27.01 µg/m3 16.13 µg/m3 14.82 °C 74.56 % 1,000.58 mbar 4.55 m/s 267.35 Deg 0.17 µg/m3
2021-11-28 05:00 1.17 µg/m3 2.42 µg/m3 83.68 µg/m3 28.83 µg/m3 13.9 µg/m3 17.26 °C 64.11 % 1,000.24 mbar 4.9 m/s 263.35 Deg 0.1 µg/m3
2021-11-28 04:00 1.64 µg/m3 2.45 µg/m3 82.29 µg/m3 27.07 µg/m3 19.36 µg/m3 17.93 °C 64.71 % 1,000.07 mbar 4.39 m/s 252.15 Deg 0.12 µg/m3
2021-11-28 03:00 1.32 µg/m3 2.57 µg/m3 84.66 µg/m3 28.43 µg/m3 21.15 µg/m3 17.85 °C 59.89 % 1,000.20 mbar 4.49 m/s 258.82 Deg 0.1 µg/m3
2021-11-28 02:00 1.28 µg/m3 2.47 µg/m3 85.02 µg/m3 32.92 µg/m3 17.35 µg/m3 18.08 °C 61.6 % 1,000.55 mbar 4.74 m/s 260.98 Deg 0.12 µg/m3
2021-11-28 01:00 1.9 µg/m3 2.59 µg/m3 83.78 µg/m3 31.2 µg/m3 10.69 µg/m3 18.07 °C 61.97 % 1,001.09 mbar 4.75 m/s 251.72 Deg 0.21 µg/m3
2021-11-28 00:00 2.65 µg/m3 2.57 µg/m3 82.32 µg/m3 44.93 µg/m3 8.18 µg/m3 18 °C 58.94 % 1,000.66 mbar 3.89 m/s 250.07 Deg 0.4 µg/m3
2021-11-27 23:00 3.2 µg/m3 2.47 µg/m3 82.82 µg/m3 44.45 µg/m3 10.93 µg/m3 18.44 °C 58.16 % 1,000.98 mbar 4.18 m/s 257.53 Deg 0.25 µg/m3
2021-11-27 22:00 3.93 µg/m3 2.37 µg/m3 81.6 µg/m3 38.67 µg/m3 6.45 µg/m3 18.24 °C 61.68 % 1,001.49 mbar 3.39 m/s 248.38 Deg 0.29 µg/m3
2021-11-27 21:00 9.33 µg/m3 2.46 µg/m3 76.02 µg/m3 34.16 µg/m3 5.28 µg/m3 17.91 °C 57.89 % 1,001.71 mbar 2.68 m/s 272.98 Deg 0.48 µg/m3
2021-11-27 20:00 9.4 µg/m3 2.58 µg/m3 76.19 µg/m3 35.21 µg/m3 8.16 µg/m3 17.88 °C 61.58 % 1,001.45 mbar 3.05 m/s 272.38 Deg 0.61 µg/m3
2021-11-27 19:00 19.76 µg/m3 1.48 µg/m3 63.69 µg/m3 46.04 µg/m3 8.07 µg/m3 17.09 °C 67.28 % 1,000.99 mbar 2.32 m/s 288.07 Deg 1.68 µg/m3
2021-11-27 18:00 26.71 µg/m3 2.63 µg/m3 52.84 µg/m3 35.33 µg/m3 8.55 µg/m3 16.59 °C 70.71 % 1,000.44 mbar 2.16 m/s 299.32 Deg 3.28 µg/m3
2021-11-27 17:00 20.85 µg/m3 2.57 µg/m3 57.06 µg/m3 20.52 µg/m3 12.6 µg/m3 17.19 °C 71.95 % 999.76 mbar 2.27 m/s 295.25 Deg 1.9 µg/m3
2021-11-27 16:00 16.23 µg/m3 2.39 µg/m3 65.49 µg/m3 24.57 µg/m3 17.83 µg/m3 18.01 °C 67.42 % 998.93 mbar 2.51 m/s 302.7 Deg 2.25 µg/m3
2021-11-27 15:00 12.37 µg/m3 2.47 µg/m3 70.9 µg/m3 32.66 µg/m3 16.84 µg/m3 17.99 °C 69.17 % 998.28 mbar 3.01 m/s 314.98 Deg 2.73 µg/m3
2021-11-27 14:00 17.45 µg/m3 2.5 µg/m3 64.97 µg/m3 30.87 µg/m3 15.54 µg/m3 17.63 °C 70.65 % 997.71 mbar 2.67 m/s 330.72 Deg 4.94 µg/m3
2021-11-27 13:00 23.4 µg/m3 2.26 µg/m3 59.74 µg/m3 40.43 µg/m3 14.03 µg/m3 16.39 °C 78.43 % 998.30 mbar 3.25 m/s 337.78 Deg 6.1 µg/m3
2021-11-27 12:00 47.73 µg/m3 2.77 µg/m3 35.86 µg/m3 50.21 µg/m3 21.73 µg/m3 15.67 °C 84.64 % 999.06 mbar 3.41 m/s 340.25 Deg 11.09 µg/m3
2021-11-27 11:00 45.74 µg/m3 2.5 µg/m3 35.41 µg/m3 65.95 µg/m3 24.9 µg/m3 15.12 °C 87.3 % 1,000.06 mbar 2.73 m/s 341.8 Deg 10.93 µg/m3
2021-11-27 10:00 56.14 µg/m3 2.8 µg/m3 23.71 µg/m3 70.11 µg/m3 40.06 µg/m3 14.61 °C 92.16 % 1,000.91 mbar 1.79 m/s 329.7 Deg 12.95 µg/m3
2021-11-27 09:00 25.58 µg/m3 2.53 µg/m3 53.59 µg/m3 82.6 µg/m3 21.79 µg/m3 15.27 °C 82.35 % 1,001.26 mbar 2.37 m/s 294.8 Deg 3.16 µg/m3
2021-11-27 08:00 18.94 µg/m3 2.67 µg/m3 59.17 µg/m3 88.72 µg/m3 24.56 µg/m3 18 °C 63.47 % 1,000.42 mbar 2.46 m/s 244.4 Deg 2 µg/m3
2021-11-27 07:00 15.49 µg/m3 2.53 µg/m3 59.61 µg/m3 82.11 µg/m3 21.04 µg/m3 18.18 °C 64.37 % 1,000.24 mbar 2.02 m/s 238.3 Deg 1.37 µg/m3
2021-11-27 06:00 7.81 µg/m3 2.38 µg/m3 68.17 µg/m3 51.38 µg/m3 13.34 µg/m3 18.12 °C 64.47 % 1,000.55 mbar 2.14 m/s 247.43 Deg 0.71 µg/m3
2021-11-27 05:00 2.38 µg/m3 2.7 µg/m3 74.54 µg/m3 39.86 µg/m3 5.57 µg/m3 18.09 °C 63.52 % 1,000.66 mbar 2.55 m/s 241.07 Deg 0.2 µg/m3
2021-11-27 04:00 2.2 µg/m3 2.48 µg/m3 75.3 µg/m3 24.03 µg/m3 4.82 µg/m3 17.98 °C 64.76 % 1,001.10 mbar 2.89 m/s 243.58 Deg 0.2 µg/m3
2021-11-27 03:00 1.47 µg/m3 2.63 µg/m3 76.12 µg/m3 14.08 µg/m3 5.62 µg/m3 17.95 °C 67.19 % 1,002.04 mbar 2.84 m/s 259.15 Deg 0.11 µg/m3
2021-11-27 02:00 1.97 µg/m3 2.55 µg/m3 77.49 µg/m3 12.93 µg/m3 3.95 µg/m3 17.87 °C 64.27 % 1,002.78 mbar 3.17 m/s 262.47 Deg 0.11 µg/m3
2021-11-27 01:00 3.39 µg/m3 2.56 µg/m3 78.71 µg/m3 18.91 µg/m3 3.82 µg/m3 17.27 °C 62.93 % 1,003.30 mbar 2.52 m/s 259.85 Deg 0.14 µg/m3
2021-11-27 00:00 7.36 µg/m3 2.39 µg/m3 74.44 µg/m3 13.58 µg/m3 4.44 µg/m3 16.8 °C 63.28 % 1,003.47 mbar 2.23 m/s 262.7 Deg 0.22 µg/m3
2021-11-26 23:00 10.88 µg/m3 2.45 µg/m3 70.14 µg/m3 16.25 µg/m3 3.12 µg/m3 16.69 °C 64.03 % 1,003.80 mbar 2.14 m/s 271.47 Deg 0.25 µg/m3
2021-11-26 22:00 12.65 µg/m3 2.74 µg/m3 70.02 µg/m3 24.34 µg/m3 3.1 µg/m3 16.77 °C 62.32 % 1,003.93 mbar 2.15 m/s 275.67 Deg 0.5 µg/m3
2021-11-26 21:00 13.15 µg/m3 2.46 µg/m3 70.43 µg/m3 17.28 µg/m3 3.74 µg/m3 16.94 °C 61.68 % 1,003.86 mbar 2.45 m/s 277.37 Deg 0.62 µg/m3
2021-11-26 20:00 15.08 µg/m3 2.52 µg/m3 69.63 µg/m3 15.38 µg/m3 5.36 µg/m3 16.99 °C 61.58 % 1,003.76 mbar 3.01 m/s 277.03 Deg 0.8 µg/m3
2021-11-26 19:00 13.82 µg/m3 2.59 µg/m3 69.99 µg/m3 19.41 µg/m3 4.36 µg/m3 16.94 °C 62.06 % 1,003.70 mbar 2.92 m/s 275.88 Deg 0.85 µg/m3
2021-11-26 18:00 22.13 µg/m3 2.27 µg/m3 61.44 µg/m3 19.62 µg/m3 2.54 µg/m3 16.81 °C 63.65 % 1,003.28 mbar 3.19 m/s 281.2 Deg 2.1 µg/m3
2021-11-26 17:00 22.57 µg/m3 2.51 µg/m3 61.84 µg/m3 12.7 µg/m3 3.68 µg/m3 17.13 °C 61.36 % 1,002.72 mbar 3.3 m/s 280.15 Deg 3.66 µg/m3
2021-11-26 16:00 18.43 µg/m3 2.5 µg/m3 66.67 µg/m3 11.86 µg/m3 4.28 µg/m3 17.95 °C 57.76 % 1,002.27 mbar 4.24 m/s 284.32 Deg 3.92 µg/m3
2021-11-26 15:00 14.14 µg/m3 2.29 µg/m3 69.45 µg/m3 18.38 µg/m3 6.7 µg/m3 18.55 °C 54.98 % 1,001.97 mbar 4.43 m/s 286.83 Deg 3.4 µg/m3
2021-11-26 14:00 11.66 µg/m3 2.36 µg/m3 70.46 µg/m3 16.67 µg/m3 6.55 µg/m3 18.92 °C 56.5 % 1,002.10 mbar 4.95 m/s 285.37 Deg 3.4 µg/m3
2021-11-26 13:00 10.32 µg/m3 2.42 µg/m3 72.71 µg/m3 16.26 µg/m3 5.28 µg/m3 19.25 °C 60.82 % 1,001.90 mbar 5.19 m/s 281.03 Deg 2.65 µg/m3
2021-11-26 12:00 9.14 µg/m3 2.53 µg/m3 67.1 µg/m3 17.9 µg/m3 3.87 µg/m3 19.27 °C 68.12 % 1,002.18 mbar 4.46 m/s 272.22 Deg 2.51 µg/m3
2021-11-26 11:00 14.17 µg/m3 2.34 µg/m3 61.36 µg/m3 26.04 µg/m3 5.34 µg/m3 19.2 °C 68.23 % 1,002.31 mbar 3.46 m/s 252.87 Deg 4.74 µg/m3
2021-11-26 10:00 24.9 µg/m3 2.48 µg/m3 52.25 µg/m3 41.89 µg/m3 6.82 µg/m3 18.52 °C 68.75 % 1,002.31 mbar 2.54 m/s 254.53 Deg 5.8 µg/m3
2021-11-26 09:00 45.12 µg/m3 2.45 µg/m3 34.32 µg/m3 25.73 µg/m3 9.83 µg/m3 17.82 °C 69.96 % 1,002.19 mbar 1.55 m/s 265.43 Deg 12.81 µg/m3
2021-11-26 08:00 69.74 µg/m3 2.81 µg/m3 11.09 µg/m3 19.47 µg/m3 16.25 µg/m3 16.01 °C 73.69 % 1,002.04 mbar 1.78 m/s 284.72 Deg 40.29 µg/m3
2021-11-26 07:00 67.21 µg/m3 2.64 µg/m3 9.66 µg/m3 13.02 µg/m3 10.1 µg/m3 15.34 °C 79.82 % 1,001.72 mbar 1.42 m/s 299.28 Deg 37.42 µg/m3
2021-11-26 06:00 27.65 µg/m3 2.4 µg/m3 43.14 µg/m3 12.01 µg/m3 9.23 µg/m3 15.14 °C 82.76 % 1,001.19 mbar 1.57 m/s 292.5 Deg 2.6 µg/m3
2021-11-26 05:00 5.35 µg/m3 2.28 µg/m3 69.4 µg/m3 9.72 µg/m3 12.05 µg/m3 15.16 °C 82.51 % 1,000.91 mbar 1.91 m/s 295.6 Deg 0.32 µg/m3
2021-11-26 04:00 2.4 µg/m3 2.06 µg/m3 73.57 µg/m3 8.17 µg/m3 7.78 µg/m3 16.19 °C 81.24 % 1,000.84 mbar 2.65 m/s 293.93 Deg 0.3 µg/m3
2021-11-26 03:00 1.61 µg/m3 2.28 µg/m3 71.58 µg/m3 10.23 µg/m3 7.48 µg/m3 16.19 °C 81.85 % 1,000.68 mbar 2.53 m/s 290.37 Deg 0.14 µg/m3
2021-11-26 02:00 2.02 µg/m3 2.09 µg/m3 70.89 µg/m3 13.89 µg/m3 9.63 µg/m3 16.31 °C 82.14 % 1,000.48 mbar 2.43 m/s 288.35 Deg 0.16 µg/m3
2021-11-26 01:00 4.03 µg/m3 2.21 µg/m3 65.44 µg/m3 16.41 µg/m3 13.23 µg/m3 16.26 °C 86.07 % 1,000.69 mbar 2.19 m/s 296.17 Deg 0.23 µg/m3
2021-11-26 00:00 12.37 µg/m3 2.15 µg/m3 50.33 µg/m3 21.1 µg/m3 10.69 µg/m3 16.13 °C 89.07 % 1,000.89 mbar 1.23 m/s 309.57 Deg 0.53 µg/m3
2021-11-25 23:00 17.93 µg/m3 2.09 µg/m3 45.54 µg/m3 17.68 µg/m3 11.42 µg/m3 16.39 °C 91.74 % 1,001.27 mbar 0.9 m/s 309.95 Deg 0.55 µg/m3
2021-11-25 22:00 29.78 µg/m3 2.31 µg/m3 43.43 µg/m3 17.15 µg/m3 15.89 µg/m3 17.04 °C 90.34 % 1,001.14 mbar 1.29 m/s 316.53 Deg 7.98 µg/m3
2021-11-25 21:00 24.62 µg/m3 2.21 µg/m3 49.09 µg/m3 23.22 µg/m3 23.49 µg/m3 17.21 °C 89.81 % 1,000.76 mbar 1.27 m/s 336.65 Deg 2.36 µg/m3
2021-11-25 20:00 21.49 µg/m3 2.17 µg/m3 52.99 µg/m3 23.15 µg/m3 19.07 µg/m3 17.3 °C 92.71 % 1,000.38 mbar 1.96 m/s 313.98 Deg 1.87 µg/m3
2021-11-25 19:00 49.83 µg/m3 2.43 µg/m3 25.3 µg/m3 27.85 µg/m3 7.08 µg/m3 18.16 °C 96.35 % 1,000.04 mbar 1.9 m/s 232.48 Deg 8.45 µg/m3
2021-11-25 18:00 58.07 µg/m3 2.09 µg/m3 17.22 µg/m3 18.52 µg/m3 4.93 µg/m3 18.88 °C 90.52 % 999.47 mbar 0.95 m/s 305.07 Deg 11.43 µg/m3
2021-11-25 17:00 26.13 µg/m3 2.07 µg/m3 48.8 µg/m3 20.32 µg/m3 6.22 µg/m3 19.59 °C 85.97 % 999.38 mbar 1.53 m/s 262.58 Deg 2.05 µg/m3
2021-11-25 16:00 13.39 µg/m3 2.28 µg/m3 64.67 µg/m3 21.2 µg/m3 8.17 µg/m3 20.57 °C 82.49 % 999.43 mbar 2.02 m/s 248.87 Deg 2.17 µg/m3
2021-11-25 15:00 10.61 µg/m3 2.05 µg/m3 66.76 µg/m3 29.58 µg/m3 10.66 µg/m3 20.99 °C 83.96 % 999.68 mbar 3.11 m/s 237.82 Deg 2.44 µg/m3
2021-11-25 14:00 5.63 µg/m3 2.2 µg/m3 68.19 µg/m3 18.37 µg/m3 14.58 µg/m3 19.79 °C 88.73 % 1,000.30 mbar 3.6 m/s 170.63 Deg 1.2 µg/m3
2021-11-25 13:00 10.77 µg/m3 2.08 µg/m3 65.22 µg/m3 19.4 µg/m3 11.69 µg/m3 18.84 °C 90.21 % 1,001.29 mbar 4.67 m/s 194.17 Deg 1.91 µg/m3
2021-11-25 12:00 8.65 µg/m3 2.38 µg/m3 70.06 µg/m3 18.5 µg/m3 14.63 µg/m3 17.34 °C 97.34 % 1,002.25 mbar 4.61 m/s 181.85 Deg 0.5 µg/m3
2021-11-25 11:00 6.47 µg/m3 2.02 µg/m3 74.76 µg/m3 18.74 µg/m3 9.44 µg/m3 19.02 °C 93.61 % 1,002.35 mbar 7.98 m/s 160.85 Deg 0.29 µg/m3
2021-11-25 10:00 0.65 µg/m3 1.83 µg/m3 78.25 µg/m3 14.97 µg/m3 8.25 µg/m3 18.85 °C 93.05 % 1,003.12 mbar 8.76 m/s 133.1 Deg 0.1 µg/m3
2021-11-25 09:00 1.34 µg/m3 2.23 µg/m3 76.53 µg/m3 18.34 µg/m3 6.78 µg/m3 17.89 °C 96.05 % 1,004.44 mbar 5.54 m/s 129.7 Deg 0.11 µg/m3
2021-11-25 08:00 0.79 µg/m3 2.2 µg/m3 75.08 µg/m3 10.97 µg/m3 4.41 µg/m3 17.43 °C 97.83 % 1,004.31 mbar 6.88 m/s 137.77 Deg 0.1 µg/m3
2021-11-25 07:00 0.26 µg/m3 2.36 µg/m3 74.58 µg/m3 9.41 µg/m3 3.07 µg/m3 17.16 °C 96.58 % 1,004.68 mbar 5.94 m/s 122.68 Deg 0.08 µg/m3
2021-11-25 06:00 0.86 µg/m3 2.16 µg/m3 83.92 µg/m3 9.06 µg/m3 4.94 µg/m3 18.1 °C 89.72 % 1,004.87 mbar 5.76 m/s 122.63 Deg 0.11 µg/m3
2021-11-25 05:00 0.78 µg/m3 2.3 µg/m3 87.88 µg/m3 7.03 µg/m3 7.5 µg/m3 17.77 °C 85.03 % 1,005.47 mbar 3.97 m/s 128.03 Deg 0.1 µg/m3
2021-11-25 04:00 0.82 µg/m3 2.23 µg/m3 88.78 µg/m3 6.89 µg/m3 6.54 µg/m3 17.65 °C 81.71 % 1,006.24 mbar 3.84 m/s 136.37 Deg 0.09 µg/m3
2021-11-25 03:00 1.03 µg/m3 2.52 µg/m3 87.14 µg/m3 8.32 µg/m3 6.02 µg/m3 17.41 °C 83.69 % 1,006.90 mbar 3.86 m/s 131.35 Deg 0.08 µg/m3
2021-11-25 02:00 0.73 µg/m3 2.22 µg/m3 86.38 µg/m3 10.17 µg/m3 8.18 µg/m3 17.28 °C 84.61 % 1,007.34 mbar 3.78 m/s 134.08 Deg 0.09 µg/m3
2021-11-25 01:00 0.98 µg/m3 2.35 µg/m3 82.18 µg/m3 15.64 µg/m3 9.86 µg/m3 17.04 °C 84.71 % 1,007.99 mbar 2.86 m/s 140.05 Deg 0.1 µg/m3
2021-11-25 00:00 1.3 µg/m3 2.19 µg/m3 80.4 µg/m3 14.54 µg/m3 14.7 µg/m3 17.08 °C 81.04 % 1,008.55 mbar 2.48 m/s 139.65 Deg 0.11 µg/m3
2021-11-24 23:00 2.44 µg/m3 2.17 µg/m3 80.51 µg/m3 20.56 µg/m3 10.55 µg/m3 17.12 °C 76.78 % 1,009.04 mbar 1.99 m/s 145.08 Deg 0.14 µg/m3
2021-11-24 22:00 5.68 µg/m3 2.19 µg/m3 78.52 µg/m3 32.59 µg/m3 8.15 µg/m3 17.13 °C 77.62 % 1,009.29 mbar 1.73 m/s 146.6 Deg 0.18 µg/m3
2021-11-24 21:00 12.23 µg/m3 2.27 µg/m3 73.82 µg/m3 28.53 µg/m3 11.76 µg/m3 17.43 °C 75.7 % 1,009.44 mbar 1.18 m/s 151.77 Deg 0.25 µg/m3
2021-11-24 20:00 18.23 µg/m3 2.35 µg/m3 66.41 µg/m3 27.8 µg/m3 8.09 µg/m3 17.63 °C 76.55 % 1,009.48 mbar 1.04 m/s 172.7 Deg 0.44 µg/m3
2021-11-24 19:00 24.61 µg/m3 2.31 µg/m3 59.83 µg/m3 15.89 µg/m3 9.54 µg/m3 17.64 °C 76.23 % 1,009.34 mbar 0.67 m/s 153.13 Deg 0.97 µg/m3
2021-11-24 18:00 18.93 µg/m3 2.31 µg/m3 69.1 µg/m3 14.43 µg/m3 9.23 µg/m3 17.89 °C 75.49 % 1,009.21 mbar 0.81 m/s 118.47 Deg 3.02 µg/m3
2021-11-24 17:00 8.23 µg/m3 2.47 µg/m3 74.28 µg/m3 19.13 µg/m3 9.43 µg/m3 18.13 °C 75.71 % 1,009.07 mbar 0.67 m/s 170.83 Deg 0.7 µg/m3
2021-11-24 16:00 16.52 µg/m3 2.48 µg/m3 76.63 µg/m3 21.95 µg/m3 12.15 µg/m3 18.99 °C 71.46 % 1,009.05 mbar 1.26 m/s 76.57 Deg 3.1 µg/m3
2021-11-24 15:00 13.39 µg/m3 2.41 µg/m3 78.81 µg/m3 23.76 µg/m3 15.98 µg/m3 19.42 °C 70.23 % 1,009.06 mbar 1.24 m/s 189.22 Deg 2.58 µg/m3
2021-11-24 14:00 13.93 µg/m3 2.5 µg/m3 76.98 µg/m3 28.47 µg/m3 6.83 µg/m3 19.29 °C 72.42 % 1,009.27 mbar 1.31 m/s 87.85 Deg 2.06 µg/m3
2021-11-24 13:00 18.9 µg/m3 2.41 µg/m3 69.25 µg/m3 22.21 µg/m3 4.7 µg/m3 18.86 °C 74.78 % 1,009.69 mbar 1.29 m/s 46.1 Deg 2.11 µg/m3
2021-11-24 12:00 22.81 µg/m3 2.67 µg/m3 65.28 µg/m3 28.4 µg/m3 6.8 µg/m3 19.37 °C 68.59 % 1,010.11 mbar 1.43 m/s 17.32 Deg 3.93 µg/m3
2021-11-24 11:00 34.81 µg/m3 2.55 µg/m3 54.51 µg/m3 46.09 µg/m3 9.58 µg/m3 19.45 °C 70.62 % 1,010.63 mbar 1.55 m/s 258.88 Deg 9.6 µg/m3
2021-11-24 10:00 53.4 µg/m3 2.85 µg/m3 36.58 µg/m3 56.96 µg/m3 12.9 µg/m3 18.98 °C 75.05 % 1,010.93 mbar 1.02 m/s 308.92 Deg 20.32 µg/m3
2021-11-24 09:00 82.26 µg/m3 3.07 µg/m3 13.95 µg/m3 47.86 µg/m3 11.81 µg/m3 17.87 °C 78.48 % 1,010.78 mbar 0.98 m/s 310 Deg 54.32 µg/m3
2021-11-24 08:00 83.89 µg/m3 2.97 µg/m3 8.44 µg/m3 32.6 µg/m3 17.76 µg/m3 16.35 °C 83.93 % 1,010.67 mbar 1.38 m/s 305.15 Deg 50.51 µg/m3
2021-11-24 07:00 60.35 µg/m3 2.72 µg/m3 19.35 µg/m3 16.21 µg/m3 16.71 µg/m3 15.86 °C 86.24 % 1,010.34 mbar 1.41 m/s 314.4 Deg 24.1 µg/m3
2021-11-24 06:00 31.94 µg/m3 2.53 µg/m3 44.43 µg/m3 10.58 µg/m3 13.51 µg/m3 16.05 °C 85.94 % 1,010.23 mbar 1.76 m/s 299.97 Deg 5.02 µg/m3
2021-11-24 05:00 12.3 µg/m3 2.56 µg/m3 54.89 µg/m3 12.74 µg/m3 16.63 µg/m3 15.73 °C 89.56 % 1,009.89 mbar 1.77 m/s 300.7 Deg 0.45 µg/m3
2021-11-24 04:00 10.06 µg/m3 2.35 µg/m3 55.94 µg/m3 16.48 µg/m3 10.18 µg/m3 15.72 °C 89.36 % 1,009.96 mbar 1.55 m/s 298.88 Deg 0.53 µg/m3
2021-11-24 03:00 14.13 µg/m3 2.3 µg/m3 49.32 µg/m3 12.98 µg/m3 10.31 µg/m3 15.51 °C 89.45 % 1,010.04 mbar 1.45 m/s 302.3 Deg 0.43 µg/m3
2021-11-24 02:00 11.05 µg/m3 2.68 µg/m3 53.2 µg/m3 15.39 µg/m3 11.95 µg/m3 15.69 °C 87.74 % 1,010.00 mbar 1.32 m/s 301.73 Deg 0.28 µg/m3
2021-11-24 01:00 15.81 µg/m3 2.56 µg/m3 49.77 µg/m3 22.29 µg/m3 18.89 µg/m3 15.8 °C 86.03 % 1,010.03 mbar 1.34 m/s 306.45 Deg 0.44 µg/m3
2021-11-24 00:00 23.49 µg/m3 2.43 µg/m3 43.79 µg/m3 34.73 µg/m3 20.8 µg/m3 16.01 °C 84.97 % 1,010.28 mbar 1.23 m/s 300.57 Deg 0.98 µg/m3
2021-11-23 23:00 32.22 µg/m3 2.63 µg/m3 37.66 µg/m3 36.31 µg/m3 17.43 µg/m3 16.19 °C 85.16 % 1,010.46 mbar 1.54 m/s 300.07 Deg 1.76 µg/m3
2021-11-23 22:00 39.32 µg/m3 2.48 µg/m3 33.39 µg/m3 47.22 µg/m3 19.09 µg/m3 16.41 °C 84.72 % 1,010.13 mbar 1.3 m/s 302.78 Deg 2.01 µg/m3
2021-11-23 21:00 55.86 µg/m3 2.46 µg/m3 20.31 µg/m3 47.34 µg/m3 23.46 µg/m3 16.71 °C 85.84 % 1,009.86 mbar 1.23 m/s 299.02 Deg 3.52 µg/m3
2021-11-23 20:00 73.45 µg/m3 2.61 µg/m3 11.97 µg/m3 42.48 µg/m3 12.21 µg/m3 17.39 °C 84.09 % 1,009.56 mbar 1.22 m/s 305.8 Deg 8.56 µg/m3
2021-11-23 19:00 50.38 µg/m3 2.45 µg/m3 39.43 µg/m3 25.69 µg/m3 8.78 µg/m3 18.05 °C 80.85 % 1,009.16 mbar 1.4 m/s 326.6 Deg 5.52 µg/m3
2021-11-23 18:00 38.19 µg/m3 2.25 µg/m3 52.73 µg/m3 21.7 µg/m3 12.03 µg/m3 18.45 °C 80.09 % 1,008.53 mbar 1.91 m/s 331.87 Deg 3.33 µg/m3
2021-11-23 17:00 34.49 µg/m3 2.53 µg/m3 56.5 µg/m3 20.09 µg/m3 21.55 µg/m3 19.33 °C 78.33 % 1,007.95 mbar 2.35 m/s 330.43 Deg 3.41 µg/m3
2021-11-23 16:00 21.97 µg/m3 2.26 µg/m3 66.51 µg/m3 26.59 µg/m3 11.54 µg/m3 20.49 °C 71.47 % 1,007.50 mbar 2.34 m/s 302.45 Deg 4.11 µg/m3
2021-11-23 15:00 20.28 µg/m3 2.39 µg/m3 59.59 µg/m3 28.63 µg/m3 6.98 µg/m3 21.23 °C 68.2 % 1,007.20 mbar 2.17 m/s 307.73 Deg 5.41 µg/m3
2021-11-23 14:00 13.61 µg/m3 2.37 µg/m3 62.1 µg/m3 27.22 µg/m3 9.65 µg/m3 21.45 °C 69.03 % 1,007.13 mbar 2.62 m/s 298.27 Deg 4.06 µg/m3
2021-11-23 13:00 12.64 µg/m3 2.15 µg/m3 60.42 µg/m3 26.58 µg/m3 12.06 µg/m3 21.45 °C 70.4 % 1,007.30 mbar 2.72 m/s 290.47 Deg 4.3 µg/m3
2021-11-23 12:00 11.32 µg/m3 2.48 µg/m3 62.29 µg/m3 26.22 µg/m3 11.35 µg/m3 21.11 °C 73.83 % 1,007.64 mbar 3.16 m/s 268 Deg 3.22 µg/m3
2021-11-23 11:00 12.07 µg/m3 2.32 µg/m3 62.09 µg/m3 34.76 µg/m3 12.56 µg/m3 21.18 °C 73.14 % 1,007.74 mbar 2.94 m/s 256.43 Deg 3.35 µg/m3
2021-11-23 10:00 13.64 µg/m3 2.57 µg/m3 57.63 µg/m3 47.52 µg/m3 13.19 µg/m3 20.75 °C 74.61 % 1,007.64 mbar 2.42 m/s 239.7 Deg 3.72 µg/m3
2021-11-23 09:00 38.64 µg/m3 2.7 µg/m3 32.76 µg/m3 48.1 µg/m3 19.57 µg/m3 19.53 °C 80.24 % 1,007.33 mbar 1.61 m/s 246.35 Deg 15.08 µg/m3
2021-11-23 08:00 62.07 µg/m3 4.76 µg/m3 24.04 µg/m3 30.24 µg/m3 10.73 µg/m3 18.57 °C 77.93 % 1,007.17 mbar 1.08 m/s 195.12 Deg 48.73 µg/m3
2021-11-23 07:00 44.51 µg/m3 2.5 µg/m3 29.96 µg/m3 10.77 µg/m3 4.78 µg/m3 17.68 °C 78.83 % 1,006.75 mbar 0.73 m/s 174.43 Deg 15.15 µg/m3
2021-11-23 06:00 33.13 µg/m3 2.51 µg/m3 41.94 µg/m3 6.97 µg/m3 4.75 µg/m3 18.35 °C 75.49 % 1,006.57 mbar 1.33 m/s 277.9 Deg 9.23 µg/m3
2021-11-23 05:00 4.71 µg/m3 2.48 µg/m3 72.49 µg/m3 6.9 µg/m3 6.95 µg/m3 18.49 °C 72.78 % 1,006.46 mbar 1.9 m/s 269.32 Deg 0.17 µg/m3
2021-11-23 04:00 2.58 µg/m3 2.18 µg/m3 73.74 µg/m3 9.81 µg/m3 9.52 µg/m3 18.4 °C 70.54 % 1,006.40 mbar 2.02 m/s 266.4 Deg 0.12 µg/m3
2021-11-23 03:00 1.88 µg/m3 2.49 µg/m3 74.98 µg/m3 12.27 µg/m3 15.54 µg/m3 18.44 °C 69.82 % 1,006.63 mbar 1.72 m/s 276.57 Deg 0.11 µg/m3
2021-11-23 02:00 2.26 µg/m3 2.34 µg/m3 71.29 µg/m3 15.14 µg/m3 9.65 µg/m3 18.22 °C 72.09 % 1,006.87 mbar 1.81 m/s 273.13 Deg 0.12 µg/m3

It is to be noted that the data is provisional and subject to quality assurance procedures. For validated data kindly refer your request to contact.air@era.org.mt